Weather History for CYYG - September, 2013

Change the Weather History Date:

Saturday, September 28, 2013

  Actual Average Record
Temperature  
Mean Temperature 54 °F -  
Max Temperature 70 °F 55 °F 77 °F (2014)
Min Temperature 38 °F 40 °F 35 °F (2011)
Degree Days  
Heating Degree Days 11    
Growing Degree Days 4 (Base 50)    
Moisture  
Dew Point 47 °F    
Average Humidity 78    
Maximum Humidity 100    
Minimum Humidity 39    
Precipitation  
Precipitation 0.00 in 0.15 in - ()
Sea Level Pressure  
Sea Level Pressure 30.24 in    
Wind  
Wind Speed 5 mph ()    
Max Wind Speed 10 mph    
Max Gust Speed -    
Visibility 14.5 miles    
Events Fog    
Averages and records for this station are not official NWS values.
T = Trace of Precipitation, MM = Missing Value Source: Averaged Metar Reports

Daily Weather History Graph

Daily Weather History Graph

Search for Another Location

Airport or City:

Trip Planner

Search our weather history database for the weather conditions in past years. The results will help you decide how hot, cold, wet, or windy it might be!

Date:

Astronomy

Sep. 28, 2013 Rise Set
Actual Time 7:07 AM ADT 6:57 PM ADT
Civil Twilight 6:37 AM ADT 7:27 PM ADT
Nautical Twilight 6:02 AM ADT 8:02 PM ADT
Astronomical Twilight 5:26 AM ADT 8:38 PM ADT
Moon 12:33 AM ADT (9/28) 3:30 PM ADT (9/28)
Length of Visible Light 12h 50m
Length of Day
11h 50m
Last Quarter, 36% of the Moon is Illuminated
Sep 28
Last Quarter
Oct 4
New
Oct 11
First Quarter
Oct 18
Full
Oct 26
Last Quarter

Hourly Weather History & Observations

Time (ADT) Temp. Windchill Dew Point Humidity Pressure Visibility Wind Dir Wind Speed Gust Speed Precip Events Conditions
12:00 AM 42.8 °F 41.1 °F 42.8 °F 100% 30.22 in 15.0 mi NW 3.5 mph - N/A   Clear
1:00 AM 42.8 °F 40.1 °F 42.8 °F 100% 30.22 in 15.0 mi NNW 4.6 mph - N/A   Clear
2:00 AM 42.8 °F 40.1 °F 42.8 °F 100% 30.23 in 15.0 mi WNW 4.6 mph - N/A   Clear
3:00 AM 41 °F - 41 °F 99% 30.22 in 15 mi WNW 2.3 mph - -  
3:00 AM 41.0 °F - 41.0 °F 100% 30.22 in 15.0 mi WNW 2.3 mph - N/A   Clear
4:00 AM 44.6 °F 41.4 °F 44.6 °F 100% 30.23 in 15.0 mi WSW 5.8 mph - N/A Fog Patches of Fog
4:14 AM 42.8 °F 39.3 °F 42.8 °F 100% 30.23 in 0.5 mi West 5.8 mph - N/A Fog Fog
4:46 AM 44.6 °F 42.2 °F 44.6 °F 100% 30.24 in 15.0 mi West 4.6 mph - N/A Fog Shallow Fog
5:00 AM 42.8 °F 41.1 °F 42.8 °F 100% 30.24 in 15.0 mi West 3.5 mph - N/A Fog Shallow Fog
6:00 AM 46.4 °F 44.3 °F 46.4 °F 100% 30.26 in 15.0 mi West 4.6 mph - N/A Fog Shallow Fog
7:00 AM 44.6 °F 43.1 °F 44.6 °F 100% 30.27 in 15.0 mi West 3.5 mph - N/A Fog Shallow Fog
8:00 AM 48.2 °F - 48.2 °F 100% 30.27 in 15.0 mi West 4.6 mph - N/A Fog Shallow Fog
9:00 AM 51 °F - 49 °F 92% 30.27 in 15 mi West 4.6 mph - -   Scattered Clouds
9:00 AM 51.8 °F - 50.0 °F 94% 30.27 in 15.0 mi West 4.6 mph - N/A   Partly Cloudy
10:00 AM 55.4 °F - 50.0 °F 82% 30.29 in 15.0 mi West 5.8 mph - N/A   Partly Cloudy
11:00 AM 60.8 °F - 50.0 °F 68% 30.29 in 15.0 mi West 5.8 mph - N/A   Partly Cloudy
12:00 PM 64.4 °F - 50.0 °F 59% 30.28 in 15.0 mi West 5.8 mph - N/A   Partly Cloudy
1:00 PM 66.2 °F - 48.2 °F 52% 30.27 in 15.0 mi WNW 6.9 mph - N/A   Partly Cloudy
2:00 PM 69.8 °F - 50.0 °F 49% 30.26 in 15.0 mi West 10.4 mph - N/A   Partly Cloudy
3:00 PM 70 °F - 50 °F 39% 30.24 in 15 mi West 8.1 mph - -   Clear
3:00 PM 69.8 °F - 50.0 °F 49% 30.24 in 15.0 mi West 8.1 mph - N/A   Partly Cloudy
4:00 PM 69.8 °F - 50.0 °F 49% 30.23 in 15.0 mi West 8.1 mph - N/A   Partly Cloudy
5:00 PM 68.0 °F - 46.4 °F 46% 30.23 in 15.0 mi WSW 8.1 mph - N/A   Partly Cloudy
6:00 PM 66.2 °F - 46.4 °F 49% 30.22 in 15.0 mi West 6.9 mph - N/A   Partly Cloudy
7:00 PM 62.6 °F - 48.2 °F 59% 30.22 in 15.0 mi WSW 4.6 mph - N/A   Partly Cloudy
8:00 PM 60.8 °F - 48.2 °F 63% 30.22 in 15.0 mi WSW 8.1 mph - N/A   Partly Cloudy
9:00 PM 58 °F - 50 °F 68% 30.23 in 15 mi WSW 9.2 mph - -   Clear
9:00 PM 59.0 °F - 50.0 °F 72% 30.23 in 15.0 mi WSW 8.1 mph - N/A   Partly Cloudy
10:00 PM 57.2 °F - 50.0 °F 77% 30.23 in 15.0 mi WSW 8.1 mph - N/A   Clear
11:00 PM 57.2 °F - 50.0 °F 77% 30.22 in 15.0 mi WSW 8.1 mph - N/A   Clear